Hourly Data Report for July 15, 2021

SECHELT AUT
BRITISH COLUMBIA
Current Station Operator: ECCC - MSC

49°27'28.788" N
123°42'54.945" W
86.20 m
1047172
71638
VOU

Download Data

Hourly Data (July 2021)
Hourly Data Report for July 15, 2021
TIME
LST
Temp Definition
°C
Dew Point Definition
°C
Rel Hum Definition
%
Precip. Amount Definition
mm

Wind Dir Definition
10's deg

Wind Spd Definition
km/h
Visibility Definition
km
Stn Press Definition
kPa
Hmdx Definition


Wind Chill Definition


Weather Definition


00:00 15.6 13.9 90 0.0 10 8   100.39     LegendNANA
01:00 14.8 13.6 92 0.0 9 7   100.40     LegendNANA
02:00 14.5 13.6 94 0.0 11 8   100.43     LegendNANA
03:00 14.1 13.4 95 0.0 10 10   100.40     LegendNANA
04:00 13.7 12.9 95 0.0 9 5   100.44     LegendNANA
05:00 14.7 13.6 93 0.0 11 7   100.50     LegendNANA
06:00 15.6 13.1 85 0.0 12 10   100.53     LegendNANA
07:00 15.7 12.5 81 0.0 13 11   100.58     LegendNANA
08:00 16.6 13.1 80 0.0 15 15   100.59     LegendNANA
09:00 17.1 12.8 76 0.0 15 15   100.61     LegendNANA
10:00 17.7 12.9 74 0.0 15 18   100.62     LegendNANA
11:00 17.5 12.6 73 0.1 15 19   100.63     LegendNANA
12:00 18.1 13.1 73 0.0 15 21   100.61     LegendNANA
13:00 19.0 13.4 70 0.0 15 22   100.60     LegendNANA
14:00 19.3 13.4 69 0.0 15 22   100.60     LegendNANA
15:00 19.5 13.2 67 0.1 15 20   100.57     LegendNANA
16:00 18.8 13.1 69 0.0 15 19   100.53     LegendNANA
17:00 19.3 13.2 68 0.0 15 17   100.52     LegendNANA
18:00 18.8 13.4 71 0.0 15 13   100.48     LegendNANA
19:00 19.0 12.5 66 0.0 15 13   100.45     LegendNANA
20:00 17.7 12.5 71 0.0 13 9   100.45     LegendNANA
21:00 16.1 12.3 79 0.0 11 6   100.46     LegendNANA
22:00 15.6 12.5 82 0.0 10 7   100.48     LegendNANA
23:00 15.2 12.4 84 0.0 10 6   100.47     LegendNANA

Notes on Data Quality.

Legend

  • E = Estimated
  • M = Missing
  • NA = Not Available*
  • [empty] = Indicates an unobserved value
Date modified: